Regional Weather Roundup
Issued by NWS

Home | Current Version | Previous Version | Graphics & Text | Print | Product List | Glossary On
Versions: 1 2 3 4 5 6 7 8 9 10 11 12 13 14 15 16 17 18 19 20 21 22 23 24 25 26 27 28 29 30 31 32 33 34 35 36 37 38 39 40 41 42 43 44 45 46 47 48 49 50
000
ASUS43 KLSX 010007
RWRMO

WEATHER SUMMARY FOR MISSOURI
NATIONAL WEATHER SERVICE SPRINGFIELD MO
700 PM CDT MON AUG 31 2015

NOTE: "FAIR" INDICATES FEW OR NO CLOUDS BELOW 12,000 FEET WITH NO
       SIGNIFICANT WEATHER AND/OR OBSTRUCTIONS TO VISIBILITY.
       CURRENT SKY AND/OR WEATHER CONDITIONS ARE NOT AVAILABLE FOR
       CHILLICOTHE AND FARMINGTON.

MOZ001>031-035>038-043-044-053-054-010100-
...NORTHERN AND WESTERN MISSOURI...

CITY           SKY/WX    TMP DP  RH WIND       PRES   REMARKS
KANSAS CTY INT PTCLDY    85  69  58 S9        29.95R
6HR MIN TEMP:  85; 6HR MAX TEMP:  90;

KANSAS C DTWN  CLEAR     87  69  54 S14       29.93S HX  91
6HR MIN TEMP:  87; 6HR MAX TEMP:  92;

LEE`S SUMMIT   CLEAR     85  68  56 S7        29.96S
6HR MIN TEMP:  85; 6HR MAX TEMP:  89;

ST JOSEPH      CLEAR     85  71  63 S7        29.93R HX  90
6HR MIN TEMP:  83; 6HR MAX TEMP:  88;

CHILLICOTHE      N/A     86  69  56 CALM      29.95F HX  90
6HR MIN TEMP:  86; 6HR MAX TEMP:  90;

KIRKSVILLE     CLEAR     83  72  69 S5        29.98R
6HR MIN TEMP:  83; 6HR MAX TEMP:  90;


$$
MOZ066>068-077>081-088>096-101>105-010100-
...SOUTHWEST MISSOURI...

CITY           SKY/WX    TMP DP  RH WIND       PRES   REMARKS
SPRINGFIELD    CLEAR     83  67  58 S9        30.03R
6HR MIN TEMP:  83; 6HR MAX TEMP:  89;

JOPLIN         CLEAR     84  70  62 S8        30.00R
6HR MIN TEMP:  84; 6HR MAX TEMP:  90;


$$
MOZ032>034-039>042-045>050-055>058-069>072-010100-
...CENTRAL MISSOURI...

CITY           SKY/WX    TMP DP  RH WIND       PRES   REMARKS
COLUMBIA       PTCLDY    85  72  65 S7        29.99S HX  91
6HR MIN TEMP:  85; 6HR MAX TEMP:  90;

JEFFERSON CITY PTCLDY    88  68  51 S7        29.97S HX  91
6HR MIN TEMP:  87; 6HR MAX TEMP:  92;

ROLLA          CLEAR     83  69  62 S8        30.02S
6HR MIN TEMP:  83; 6HR MAX TEMP:  91;

SEDALIA        CLEAR     87  70  56 S6        29.99S HX  92
6HR MIN TEMP:  87; 6HR MAX TEMP:  93;

WHITEMAN AFB   CLEAR     86  71  60 SW7       29.96S HX  91
WARRENSBURG    CLEAR     84  68  58 S6        29.96S
OSAGE BEACH    CLEAR     88  70  55 S3        30.01S HX  92

$$
MOZ051-052-059>065-010100-
...EAST CENTRAL MISSOURI...

CITY           SKY/WX    TMP DP  RH WIND       PRES   REMARKS
ST LOUIS INTL  MOCLDY    84  71  65 SE9       30.02S
6HR MIN TEMP:  83; 6HR MAX TEMP:  91;

SPIRIT OF STL  MOCLDY    84  74  71 S3        29.99S HX  91
6HR MIN TEMP:  84; 6HR MAX TEMP:  91;

ST CHARLES     PTCLDY    83  73  72 SE6       29.99S
6HR MIN TEMP:  83; 6HR MAX TEMP:  90;


$$
MOZ072>076-082>087-097>100-106>115-010100-
...SOUTH CENTRAL AND SOUTHEAST MISSOURI...

CITY           SKY/WX    TMP DP  RH WIND       PRES   REMARKS
CAPE GIRARDEAU CLEAR     81  69  67 SE6       30.04S
6HR MIN TEMP:  81; 6HR MAX TEMP:  88;

FARMINGTON     CLEAR     81  73  78 S7        30.07S
6HR MIN TEMP:  81; 6HR MAX TEMP:  88;

POPLAR BLUFF   PTCLDY    83  71  67 SE6       30.03S
6HR MIN TEMP:  83; 6HR MAX TEMP:  88;

WEST PLAINS    CLEAR     83  68  60 SE6       30.06S
6HR MIN TEMP:  83; 6HR MAX TEMP:  88;


$$


USA.gov is the U.S. government's official web portal to all federal, state and local government web resources and services.